Wind_Speed
12 11 11 12 12 12 13 13 13 14 15 15 14 14 13 14 14 14 15 15 15 16 16 16 16 16 16 16 17 18 19 20 21 22 23 24 25 26
12 12 13 13 13 13 13 14 14 15 15 15 15 15 15 15 15 15 15 15 16 16 16 16 16 16 17 17 18 19 20 20 22 22 24 25 26 26
12 12 13 14 14 14 14 15 15 15 15 16 16 16 16 16 15 15 15 15 16 16 16 17 17 18 18 19 19 20 20 21 22 23 24 25 25 26
13 14 14 15 15 16 16 16 16 16 16 16 17 17 16 16 15 15 15 16 16 17 17 18 18 19 19 20 21 21 22 23 24 24 25 25 26 26
15 15 16 16 16 16 17 17 17 17 17 17 17 17 16 16 16 17 17 17 18 18 18 18 19 20 20 21 22 22 23 23 24 25 25 26 26 27
17 17 18 18 18 17 17 17 17 18 18 17 17 17 17 17 17 18 18 19 20 19 19 19 20 21 22 22 23 23 23 24 25 26 27 27 28 28
18 18 19 19 19 19 18 18 18 18 18 18 18 18 18 18 18 19 19 20 20 20 21 21 22 22 23 23 23 24 25 26 26 27 28 29 29 30
19 19 19 20 19 19 19 18 19 19 19 19 19 19 19 19 20 21 21 21 21 21 22 23 23 23 24 25 25 26 26 27 28 28 29 30 30 30
19 20 20 20 20 20 20 19 19 19 20 20 20 20 21 21 22 22 22 23 23 23 24 25 25 25 25 26 26 27 28 28 29 29 30 31 31 31
20 20 21 21 21 21 21 21 21 21 21 21 22 22 22 22 23 23 23 24 24 25 26 26 27 27 27 28 28 29 29 30 30 31 31 31 31 31
21 21 21 22 22 22 23 23 22 22 23 23 24 24 24 24 24 25 25 25 26 27 27 28 28 28 28 29 30 30 30 31 31 32 32 32 32 32
22 22 22 23 23 23 24 23 23 23 24 24 25 25 25 26 26 26 27 27 28 28 29 29 29 30 29 30 31 31 31 32 32 33 33 33 33 33
23 23 24 24 24 25 25 25 24 25 25 25 26 26 27 27 27 27 28 28 28 28 29 29 30 30 31 31 31 32 32 33 33 33 33 33 34 33
24 24 24 25 25 26 26 26 26 26 26 26 27 27 27 28 28 28 28 28 28 29 29 29 30 31 31 32 32 33 34 34 34 34 34 34 34 33
26 26 26 26 26 27 27 27 27 27 27 27 28 28 28 28 29 29 29 29 29 30 30 31 31 32 32 33 33 33 33 34 34 34 34 34 33 33
28 28 27 27 28 28 28 29 28 28 28 28 29 29 29 29 30 30 30 30 30 31 31 31 32 32 33 34 34 34 34 34 34 34 34 34 33 33
29 29 29 29 29 29 29 29 29 29 29 29 29 30 30 31 31 32 31 31 32 32 33 33 34 33 33 33 33 34 34 34 34 34 34 34 34 33
31 30 30 30 30 30 30 30 30 30 30 30 30 31 31 31 32 33 33 33 33 33 34 35 35 35 34 34 35 34 33 34 34 34 34 34 34 34
31 31 31 31 31 31 31 31 31 31 31 31 32 32 32 33 33 33 33 33 33 33 34 35 35 35 35 35 35 34 34 34 34 34 34 34 34 33
32 32 32 32 32 32 32 32 32 31 31 32 33 34 34 34 34 34 34 34 34 34 34 34 34 35 35 35 34 33 34 34 34 34 34 34 34 33
33 33 33 33 32 33 33 33 33 33 33 34 34 35 35 35 35 35 35 35 35 35 34 34 34 35 34 34 34 33 34 34 34 34 34 34 33 33
34 33 33 33 33 34 33 33 34 34 34 35 35 35 35 35 35 35 35 35 34 34 33 33 33 32 32 33 33 33 33 33 34 34 34 34 34 34
34 34 34 34 34 35 34 34 34 34 35 36 35 35 35 35 35 35 35 34 34 34 34 33 31 31 31 32 33 33 33 34 34 34 35 35 35 34
Wind_Direction
320 319 317 313 309 308 308 307 306 306 305 307 304 301 302 300 298 296 294 294 297 298 296 296 295 293 291 291 292 294 295 294 293 293 293 292 292 293
320 320 317 313 313 310 310 309 307 306 306 305 304 303 301 300 298 296 295 296 296 297 297 296 296 294 292 293 294 295 296 294 295 295 294 294 295 296
320 321 320 316 313 311 311 310 309 306 305 304 303 302 299 298 297 297 297 297 297 295 297 296 295 293 292 293 294 296 297 298 298 298 298 298 297 297
320 320 318 318 314 313 310 308 308 307 305 305 304 302 298 295 295 296 298 299 298 297 297 297 296 294 293 294 296 298 299 300 299 299 299 298 298 298
321 319 317 316 315 313 310 309 309 307 307 307 305 302 298 294 294 295 297 299 299 298 298 297 297 297 296 297 297 299 299 300 301 301 301 300 300 300
323 321 318 317 315 314 312 310 309 308 307 306 304 302 299 296 295 295 295 296 298 298 298 298 299 298 298 298 299 299 300 301 303 303 302 301 300 300
321 321 319 317 316 315 315 311 309 307 305 304 302 301 299 296 296 295 296 296 296 296 296 297 298 299 298 298 299 299 300 301 302 303 302 302 301 301
320 319 317 316 315 314 315 312 311 308 304 303 301 299 299 298 297 297 297 296 296 296 296 296 297 297 297 297 298 300 301 302 303 303 302 302 302 303
318 319 318 317 316 313 313 311 310 308 304 302 301 298 298 298 297 297 297 297 296 296 297 298 298 299 299 298 298 299 301 302 303 303 303 303 303 303
316 317 317 316 316 314 312 310 308 306 304 303 303 302 300 298 297 297 297 297 296 296 298 299 299 298 298 298 298 299 300 301 303 304 303 303 302 302
313 313 314 315 315 315 313 309 306 305 304 303 303 301 300 298 297 297 297 297 297 298 299 299 299 299 299 299 299 300 300 301 302 303 303 302 301 300
312 311 311 311 312 313 313 310 307 306 304 303 303 301 299 298 297 297 297 297 297 298 299 299 299 299 299 300 300 300 301 302 302 302 302 302 302 302
311 311 310 310 310 310 310 309 307 306 304 302 302 301 300 298 298 298 298 298 298 298 298 299 299 300 300 300 301 302 302 303 304 304 303 303 303 302
310 312 311 310 310 309 309 309 308 306 305 303 301 301 300 299 299 298 298 298 297 297 298 299 299 300 301 301 302 302 303 304 305 305 304 303 303 303
308 309 311 310 309 310 310 310 309 308 306 304 301 300 300 299 299 299 298 298 298 298 298 298 298 299 300 301 302 304 304 305 305 305 305 305 305 304
305 306 307 308 308 309 309 309 308 308 306 305 301 300 299 299 299 299 298 298 298 299 299 299 299 299 300 301 302 303 304 304 304 304 304 305 305 305
302 304 305 306 306 308 308 308 307 307 307 306 305 303 301 300 299 298 297 296 297 297 298 299 300 300 299 300 302 303 304 304 304 304 304 305 306 306
301 301 302 304 305 305 305 305 306 306 305 306 306 306 305 304 303 302 300 298 297 297 297 297 298 300 299 300 301 303 304 305 305 305 305 305 305 305
301 301 300 301 302 303 303 304 304 305 305 305 305 306 306 305 304 303 301 301 299 298 297 297 296 298 299 299 300 302 303 304 305 304 305 305 305 304
302 300 300 300 301 302 303 302 302 303 304 305 305 305 305 305 304 303 302 301 300 299 298 297 297 298 298 299 299 300 302 303 304 305 305 305 304 304
301 299 299 301 302 302 302 302 301 301 302 304 304 305 305 304 304 304 303 302 302 300 299 297 297 298 298 298 299 300 301 303 305 305 305 305 305 304
299 297 298 300 301 301 300 300 301 301 302 303 304 304 304 304 303 304 303 302 301 301 300 298 298 299 298 299 300 302 302 304 305 306 306 306 305 305
299 297 298 299 299 299 298 299 300 300 301 302 303 304 305 304 304 303 303 303 302 300 299 299 299 299 299 299 301 302 303 304 305 305 306 306 306 305
Height
5873 5872 5870 5869 5867 5866 5865 5863 5862 5860 5858 5857 5855 5853 5852 5851 5849 5848 5847 5846 5844 5843 5841 5840 5838 5837 5836 5835 5833 5832 5831 5829 5828 5826 5824 5822 5821 5819
5871 5870 5868 5866 5865 5863 5862 5860 5859 5857 5855 5854 5852 5850 5849 5847 5846 5844 5843 5842 5840 5839 5838 5836 5835 5833 5832 5830 5829 5828 5826 5824 5822 5820 5818 5816 5814 5812
5869 5868 5866 5864 5862 5860 5859 5857 5856 5854 5852 5850 5848 5847 5845 5844 5842 5841 5839 5838 5836 5835 5834 5832 5831 5829 5828 5826 5824 5823 5821 5819 5817 5814 5812 5810 5808 5805
5867 5865 5863 5862 5859 5857 5855 5854 5852 5850 5849 5847 5845 5843 5841 5839 5838 5837 5835 5834 5832 5831 5829 5828 5826 5824 5823 5821 5819 5817 5815 5813 5811 5808 5806 5804 5801 5798
5865 5863 5861 5858 5856 5854 5852 5850 5848 5846 5845 5843 5840 5838 5837 5835 5834 5832 5831 5830 5828 5826 5825 5823 5821 5820 5818 5816 5814 5811 5809 5807 5805 5802 5799 5797 5794 5791
5862 5860 5857 5855 5853 5850 5848 5846 5844 5842 5840 5838 5836 5834 5832 5831 5830 5828 5827 5825 5823 5822 5820 5818 5816 5814 5812 5810 5808 5806 5803 5801 5798 5795 5792 5789 5787 5783
5859 5856 5854 5851 5849 5847 5844 5842 5840 5838 5836 5834 5832 5830 5828 5826 5825 5823 5822 5820 5818 5816 5815 5813 5811 5809 5806 5804 5801 5799 5797 5794 5791 5788 5785 5782 5779 5776
5855 5853 5850 5848 5845 5842 5840 5838 5836 5833 5831 5829 5827 5825 5823 5821 5820 5818 5816 5815 5813 5811 5809 5807 5805 5802 5800 5797 5795 5792 5790 5787 5783 5780 5777 5774 5771 5767
5851 5849 5846 5843 5841 5838 5836 5833 5831 5829 5827 5824 5823 5821 5819 5817 5815 5813 5811 5809 5807 5805 5803 5801 5798 5796 5793 5790 5788 5785 5782 5779 5775 5772 5769 5766 5762 5759
5847 5844 5842 5839 5836 5833 5831 5828 5826 5823 5821 5819 5817 5815 5813 5811 5809 5807 5805 5803 5801 5799 5796 5794 5791 5789 5786 5783 5780 5777 5774 5771 5767 5764 5760 5757 5754 5750
5842 5840 5837 5834 5831 5828 5826 5823 5820 5818 5816 5813 5811 5809 5807 5805 5802 5800 5798 5796 5794 5791 5789 5787 5784 5781 5778 5775 5772 5769 5766 5762 5759 5755 5752 5748 5745 5741
5838 5835 5832 5829 5826 5823 5821 5818 5815 5812 5810 5807 5805 5802 5800 5798 5796 5794 5791 5789 5786 5784 5781 5779 5776 5773 5770 5767 5764 5760 5757 5753 5750 5746 5743 5739 5736 5732
5832 5829 5827 5824 5821 5818 5815 5812 5810 5807 5804 5801 5798 5796 5793 5791 5788 5786 5784 5781 5779 5776 5774 5771 5768 5765 5762 5759 5755 5752 5748 5744 5741 5737 5734 5730 5726 5723
5827 5824 5821 5818 5815 5812 5809 5806 5803 5800 5797 5794 5792 5789 5786 5784 5781 5778 5775 5773 5770 5768 5765 5763 5760 5757 5753 5750 5747 5743 5739 5735 5732 5728 5725 5721 5717 5714
5821 5818 5815 5812 5809 5806 5803 5799 5796 5793 5790 5787 5784 5781 5778 5776 5773 5770 5768 5765 5762 5759 5757 5754 5751 5748 5745 5742 5738 5735 5731 5727 5723 5720 5716 5712 5709 5705
5814 5812 5809 5806 5803 5799 5796 5792 5789 5786 5782 5779 5776 5773 5770 5767 5764 5762 5759 5757 5754 5751 5748 5745 5742 5739 5736 5733 5729 5726 5722 5719 5715 5711 5707 5703 5700 5696
5807 5804 5801 5798 5795 5792 5788 5785 5781 5778 5775 5771 5768 5765 5762 5759 5756 5753 5750 5747 5745 5742 5739 5736 5732 5730 5727 5724 5720 5717 5713 5709 5706 5702 5698 5694 5691 5687
5800 5797 5793 5790 5787 5784 5781 5777 5774 5771 5767 5764 5760 5757 5753 5750 5747 5744 5741 5738 5735 5732 5729 5726 5723 5720 5717 5714 5711 5707 5704 5700 5696 5693 5689 5685 5682 5678
5791 5788 5785 5782 5779 5776 5773 5769 5766 5763 5759 5756 5752 5749 5745 5742 5738 5735 5731 5728 5725 5722 5719 5716 5713 5710 5707 5705 5702 5698 5694 5691 5687 5683 5680 5676 5673 5669
5782 5779 5776 5773 5770 5767 5764 5761 5758 5754 5751 5747 5744 5740 5736 5733 5729 5726 5722 5719 5716 5712 5709 5706 5703 5700 5698 5695 5692 5689 5685 5681 5678 5674 5671 5667 5663 5660
5773 5771 5768 5765 5761 5758 5755 5752 5749 5745 5742 5738 5735 5731 5727 5724 5720 5716 5713 5709 5706 5703 5700 5697 5694 5691 5688 5685 5683 5680 5676 5672 5668 5665 5661 5658 5654 5651
5765 5762 5759 5756 5752 5749 5746 5743 5740 5736 5733 5729 5726 5722 5718 5714 5711 5707 5703 5700 5696 5693 5690 5687 5684 5681 5678 5676 5673 5670 5667 5663 5659 5655 5651 5648 5644 5641
5756 5752 5749 5746 5743 5740 5737 5734 5731 5727 5724 5720 5717 5713 5709 5705 5701 5697 5694 5691 5687 5684 5681 5678 5675 5672 5669 5666 5664 5660 5657 5654 5650 5646 5642 5638 5635 5631